Location: Home
(42.5358°N, 72.7383°W)
Time: 12:57:01
(UTC-05:00)

Explorer 7 - Pass Details

Date: 03 December 2021
Orbit: 483 x 674 km, 50.3° (Epoch: 19 January)

Event Time Altitude Azimuth Distance (km) Brightness Sun altitude
Exits shadow 04:58:17 15° 199° (SSW) 1,593 9.1 -22.4°
Maximum altitude 05:01:21 35° 139° (SE) 927 8.3 -21.8°
Drops below altitude 10° 05:05:09 10° 73° (ENE) 1,825 10.3 -21.1°
Sets 05:07:27 0° 65° (ENE) 2,688 11.2 -20.7°
